Location: Bodest
(46.3000°N, 22.5667°E)
Time: 22:39:08
(UTC+00:00)

Cosmos 371 Rocket - Pass Details

Date: 16 October 2021
Orbit: 684 x 699 km, 74.0° (Epoch: 04 December)

Event Time Altitude Azimuth Distance (km) Brightness Sun altitude
Rises 17:44:30 0° 189° (S) 3,050 6.6 -22.0°
Reaches altitude 10° 17:46:49 10° 186° (S) 2,140 5.8 -22.4°
Enters shadow 17:50:03 40° 166° (SSE) 1,020 3.9 -22.9°
